• Join FlightAware (Why Join?)
  • Login
  • US Flag 
04:23AM EST


 

Airport Tracker/Info


-or-


 

Live Flight TrackerFlight Track Log ✈ AAL963 ✈ 09-May-2013 ✈ KDFW - SBGR / GRU

Flight Track Log - Related Links

Times and Time Zones

All times are in EDT time to prevent confusion due to time zone crossing. See the AAL963 flight status page for this flight to view local times or setup timezone preferences in your user account.

Time Position Orientation Groundspeed Altitude Reporting Facility
EDT Latitude Longitude Course Direction KTS MPH feet Rate Location/Type
09:36PM 32.8430 -97.0590 197° South 199 229 2,500  Level FlightAware
09:36PM 32.8100 -97.0700 196° South 231 266 3,100 1,300 Climbing FlightAware
09:37PM 32.7770 -97.0770 190° South 252 290 3,800 1,371 Climbing FlightAware
09:37PM 32.7300 -97.0700 173° South 274 315 4,700 1,543 Climbing FlightAware
09:38PM 32.6920 -97.0560 163° South 284 327 5,600 1,855 Climbing FlightAware
09:38PM 32.6620 -97.0430 160° South 286 329 6,400 1,964 Climbing FlightAware
09:39PM 32.6250 -97.0210 153° Southeast 296 341 7,400 2,073 Climbing FlightAware
09:39PM 32.5930 -97.0010 152° Southeast 299 344 8,300 2,073 Climbing FlightAware
09:40PM 32.5560 -96.9790 153° Southeast 307 353 9,300 1,714 Climbing FlightAware
09:40PM 32.5030 -96.9480 154° Southeast 317 365 10,300 1,341 Climbing FlightAware
09:41PM 32.4400 -96.9220 161° South 331 381 11,200 1,906 Climbing FlightAware
09:42PM 32.3780 -96.9210 179° South 330 380 13,000 2,400 Climbing FlightAware
09:42PM 32.3070 -96.9190 179° South 340 391 14,600 1,933 Climbing FlightAware
09:43PM 32.2380 -96.9180 179° South 359 413 15,900 1,694 Climbing FlightAware
09:44PM 32.1710 -96.9160 179° South 375 432 17,000 1,929 Climbing FlightAware
09:44PM 32.1376 -96.9149 178° South 380 437 17,700 2,108 Climbing FlightAware ADS-B
09:45PM 32.0337 -96.9112 178° South 387 445 19,600 1,922 Climbing FlightAware ADS-B
09:46PM 31.9513 -96.9100 179° South 397 457 21,000 1,895 Climbing FlightAware ADS-B
09:46PM 31.8920 -96.9093 179° South 404 465 22,000 1,875 Climbing FlightAware ADS-B
09:47PM 31.8303 -96.9097 180° South 410 472 23,000 2,000 Climbing FlightAware ADS-B
09:47PM 31.7676 -96.9080 179° South 409 471 24,200 1,636 Climbing FlightAware ADS-B
09:48PM 31.7046 -96.8991 173° South 427 491 24,800 1,371 Climbing FlightAware ADS-B
09:49PM 31.6323 -96.8827 169° South 432 497 25,800 1,588 Climbing FlightAware ADS-B
09:49PM 31.5698 -96.8682 169° South 433 498 26,600 1,548 Climbing FlightAware ADS-B
09:50PM 31.5090 -96.8548 169° South 434 499 27,400 1,475 Climbing FlightAware ADS-B
09:50PM 31.4492 -96.8422 170° South 436 502 28,100 1,279 Climbing FlightAware ADS-B
09:51PM 31.3884 -96.8294 170° South 441 507 28,700 1,082 Climbing FlightAware ADS-B
09:51PM 31.3266 -96.8164 170° South 446 513 29,200 885 Climbing FlightAware ADS-B
09:52PM 31.2643 -96.8032 170° South 452 520 29,600 857 Climbing FlightAware ADS-B
09:52PM 31.1975 -96.7890 170° South 457 526 30,100 1,065 Climbing FlightAware ADS-B
09:53PM 31.1340 -96.7756 170° South 458 527 30,700 1,082 Climbing FlightAware ADS-B
09:53PM 31.0704 -96.7623 170° South 462 532 31,200 871 Climbing FlightAware ADS-B
09:54PM 31.0050 -96.7485 170° South 467 537 31,600 787 Climbing FlightAware ADS-B
09:54PM 30.9405 -96.7348 170° South 470 541 32,000 1,300 Climbing FlightAware ADS-B
09:55PM 30.8750 -96.7209 170° South 463 533 32,900 1,475 Climbing FlightAware ADS-B
09:55PM 30.8115 -96.7076 170° South 462 532 33,500 689 Climbing FlightAware ADS-B
09:56PM 30.7473 -96.6943 170° South 471 542 33,600 300 Climbing FlightAware ADS-B
09:56PM 30.6813 -96.6803 170° South 479 551 33,800 787 Climbing FlightAware ADS-B
09:57PM 30.6153 -96.6656 169° South 476 548 34,400 1,102 Climbing FlightAware ADS-B
09:57PM 30.5751 -96.6562 169° South 477 549 34,700 625 Climbing FlightAware ADS-B
09:58PM 30.5104 -96.6355 165° South 489 563 34,900 383 Climbing FlightAware ADS-B
09:58PM 30.4743 -96.6204 160° South 496 571 35,000 176 Climbing FlightAware ADS-B
09:58PM 30.4379 -96.6022 157° South 504 580 35,000  Level FlightAware ADS-B
09:58PM 30.4186 -96.5910 153° Southeast 510 587 35,000  Level FlightAware ADS-B
09:59PM 30.3565 -96.5461 148° Southeast 518 596 35,000  Level FlightAware ADS-B
09:59PM 30.3126 -96.5066 142° Southeast 526 605 35,000  Level FlightAware ADS-B
10:00PM 30.2712 -96.4603 136° Southeast 533 613 35,000  Level FlightAware ADS-B
10:00PM 30.2473 -96.4294 132° Southeast 537 618 35,000  Level FlightAware ADS-B
10:00PM 30.2142 -96.3813 129° Southeast 543 625 35,000  Level FlightAware ADS-B
10:01PM 30.1750 -96.3150 124° Southeast 548 631 35,000  Level FlightAware
10:01PM 30.1696 -96.3052 123° Southeast 550 633 35,000  Level FlightAware ADS-B
10:01PM 30.1315 -96.2271 119° Southeast 555 639 35,000  Level FlightAware ADS-B
10:02PM 30.1110 -96.1787 116° Southeast 557 641 35,000  Level FlightAware ADS-B
10:02PM 30.0803 -96.0958 113° Southeast 558 642 35,000  Level FlightAware ADS-B
10:03PM 30.0491 -96.0137 114° Southeast 557 641 35,000  Level FlightAware ADS-B
10:03PM 30.0169 -95.9287 114° Southeast 555 639 35,000  Level FlightAware ADS-B
10:03PM 29.9933 -95.8674 114° Southeast 554 638 35,000  Level FlightAware ADS-B
10:04PM 29.9730 -95.8218 117° Southeast 552 635 35,000  Level FlightAware ADS-B
10:04PM 29.9353 -95.7489 121° Southeast 549 632 35,000  Level FlightAware ADS-B
10:05PM 29.8974 -95.6878 126° Southeast 546 628 35,000  Level FlightAware ADS-B
10:05PM 29.8498 -95.6194 129° Southeast 545 627 35,000  Level FlightAware ADS-B
10:06PM 29.8010 -95.5497 129° Southeast 544 626 35,000  Level FlightAware ADS-B
10:06PM 29.7522 -95.4801 129° Southeast 544 626 35,000  Level FlightAware ADS-B
10:07PM 29.7043 -95.4120 129° Southeast 544 626 35,000  Level FlightAware ADS-B
10:07PM 29.6554 -95.3426 129° Southeast 544 626 35,000  Level FlightAware ADS-B
10:08PM 29.6065 -95.2732 129° Southeast 545 627 35,000  Level FlightAware ADS-B
10:08PM 29.5579 -95.2047 129° Southeast 546 628 35,000  Level FlightAware ADS-B
10:09PM 29.5055 -95.1306 129° Southeast 546 628 35,000  Level FlightAware ADS-B
10:10PM 29.4179 -95.0074 129° Southeast 547 629 35,000  Level FlightAware ADS-B
10:10PM 29.3604 -94.9267 129° Southeast 547 629 35,000  Level FlightAware ADS-B
10:11PM 29.3077 -94.8530 129° Southeast 546 628 35,000  Level FlightAware ADS-B
10:11PM 29.2536 -94.7774 129° Southeast 546 628 35,000  Level FlightAware ADS-B
10:12PM 29.2022 -94.7056 129° Southeast 546 628 35,000  Level FlightAware ADS-B
10:12PM 29.1537 -94.6383 130° Southeast 546 628 35,000  Level FlightAware ADS-B
10:13PM 29.1017 -94.5658 129° Southeast 546 628 35,000  Level FlightAware ADS-B
10:14PM 29.0515 -94.4955 129° Southeast 547 629 35,000  Level FlightAware ADS-B
10:14PM 29.0021 -94.4263 129° Southeast 547 629 35,000  Level FlightAware ADS-B
10:15PM 28.9520 -94.3563 129° Southeast 549 632 35,000  Level FlightAware ADS-B
10:15PM 28.8933 -94.2745 129° Southeast 551 634 35,000  Level FlightAware ADS-B
10:16PM 28.8430 -94.2045 129° Southeast 553 636 35,000  Level FlightAware ADS-B
10:16PM 28.7933 -94.1355 129° Southeast 555 639 35,000  Level FlightAware ADS-B
10:17PM 28.7444 -94.0677 129° Southeast 556 640 35,000  Level FlightAware ADS-B
10:17PM 28.6947 -93.9989 129° Southeast 555 639 35,000  Level FlightAware ADS-B
10:18PM 28.6415 -93.9255 130° Southeast 555 639 35,000  Level FlightAware ADS-B
10:18PM 28.5900 -93.8545 130° Southeast 554 638 35,000  Level FlightAware ADS-B
10:19PM 28.5392 -93.7847 130° Southeast 553 636 35,000  Level FlightAware ADS-B
10:19PM 28.4902 -93.7173 130° Southeast 553 636 35,000  Level FlightAware ADS-B
10:20PM 28.4409 -93.6497 130° Southeast 553 636 35,000  Level FlightAware ADS-B
10:20PM 28.3856 -93.5738 130° Southeast 553 636 35,000  Level FlightAware ADS-B
10:22PM 28.2711 -93.4173 130° Southeast 551 634 35,000  Level FlightAware ADS-B
10:22PM 28.2411 -93.3758 130° Southeast 552 635 35,000  Level Houston Center
10:23PM 28.1447 -93.2425 129° Southeast 549 632 35,000  Level Houston Center
10:24PM 28.0419 -93.1061 130° Southeast 549 632 35,000  Level Houston Center
10:25PM 27.9450 -92.9736 130° Southeast 549 632 35,000 -49 Level Houston Center
10:26PM 27.8461 -92.8403 130° Southeast 552 635 34,900  Descending Houston Center
10:27PM 27.7269 -92.6819 130° Southeast 553 636 35,000 49 Climbing Houston Center
10:28PM 27.6267 -92.5500 131° Southeast 554 638 35,000  Level Houston Center
10:29PM 27.5272 -92.4156 130° Southeast 559 643 35,000 -49 Level Houston Center
10:30PM 27.4258 -92.2814 130° Southeast 563 648 34,900 -49 Descending Houston Center
10:31PM 27.3256 -92.1492 130° Southeast 558 642 34,900  Level Houston Center
10:32PM 27.2247 -92.0169 131° Southeast 558 642 34,900 49 Level Houston Center
10:33PM 27.1097 -91.9008 138° Southeast 559 643 35,000 49 Climbing Houston Center
10:34PM 26.9869 -91.7986 143° Southeast 554 638 35,000 -49 Level Houston Center
10:35PM 26.8544 -91.6922 144° Southeast 552 635 34,900  Descending Houston Center
10:36PM 26.7075 -91.5747 144° Southeast 551 634 35,000 Climbing Houston Center
10:38PM 26.5764 -91.4672 144° Southeast  Level FlightAware Approximate
10:45PM 25.8016 -90.8579 144° Southeast  Level FlightAware Approximate
10:46PM 25.6917 -90.7700 144° Southeast  Level FlightAware Approximate
10:47PM 25.5800 -90.6849 146° Southeast  Level FlightAware Approximate
10:48PM 25.4679 -90.6007 146° Southeast  Level FlightAware Approximate
10:49PM 25.3557 -90.5167 146° Southeast  Level FlightAware Approximate
10:50PM 25.2454 -90.4296 144° Southeast  Level FlightAware Approximate
10:51PM 25.1354 -90.3423 145° Southeast  Level FlightAware Approximate
10:52PM 25.0247 -90.2561 145° Southeast  Level FlightAware Approximate
10:53PM 24.9139 -90.1700 145° Southeast  Level FlightAware Approximate
10:54PM 24.8031 -90.0841 145° Southeast  Level FlightAware Approximate
10:55PM 24.6923 -89.9983 145° Southeast  Level FlightAware Approximate
10:56PM 24.5814 -89.9127 145° Southeast  Level FlightAware Approximate
10:57PM 24.4733 -89.8233 138° Southeast  Level FlightAware Approximate
10:58PM 24.3732 -89.7231 138° Southeast  Level FlightAware Approximate
10:58PM 24.0040 -89.4770 138° Southeast 552 635 35,000  Level FlightAware
10:58PM 23.9380 -89.4270 145° Southeast 552 635 35,000  Level FlightAware
10:59PM 23.8380 -89.3510 145° Southeast 552 635 35,000  Level FlightAware
11:00PM 23.7430 -89.2810 146° Southeast 551 634 35,000  Level FlightAware
11:01PM 23.6370 -89.2000 145° Southeast 550 633 35,000  Level FlightAware
11:02PM 23.5330 -89.1230 146° Southeast 552 635 35,000  Level FlightAware
11:02PM 23.4490 -89.0600 145° Southeast 552 635 35,000  Level FlightAware
11:03PM 23.3640 -88.9960 145° Southeast 553 636 35,000  Level FlightAware
11:04PM 23.2650 -88.9230 146° Southeast 553 636 35,000  Level FlightAware
11:04PM 23.1810 -88.8600 145° Southeast 554 638 35,000  Level FlightAware
11:05PM 23.0890 -88.7920 146° Southeast 554 638 35,000  Level FlightAware
11:06PM 23.0030 -88.7280 146° Southeast 553 636 35,000  Level FlightAware
11:06PM 22.9180 -88.6660 146° Southeast 553 636 35,000  Level FlightAware
11:07PM 22.8230 -88.5960 146° Southeast 553 636 35,000  Level FlightAware
11:08PM 22.7400 -88.5340 145° Southeast 554 638 35,000  Level FlightAware
11:09PM 22.6480 -88.4570 142° Southeast 559 643 35,000  Level FlightAware
11:09PM 22.5700 -88.3800 138° Southeast 560 644 35,000  Level FlightAware
11:10PM 22.4950 -88.3040 137° Southeast 561 646 35,000  Level FlightAware
11:11PM 22.4060 -88.2160 138° Southeast 561 646 35,000  Level FlightAware
11:11PM 22.3300 -88.1400 137° Southeast 561 646 35,000  Level FlightAware
11:12PM 22.2450 -88.0550 137° Southeast 561 646 35,000  Level FlightAware
11:13PM 22.1670 -87.9780 138° Southeast 561 646 35,000  Level FlightAware
11:14PM 22.0830 -87.8950 138° Southeast 561 646 35,000  Level FlightAware
11:14PM 22.0140 -87.8270 138° Southeast 561 646 35,000  Level FlightAware
11:15PM 21.9300 -87.7450 138° Southeast 559 643 35,000  Level FlightAware
11:16PM 21.8530 -87.6680 137° Southeast 559 643 35,000  Level FlightAware
11:16PM 21.7650 -87.5820 138° Southeast 558 642 35,000  Level FlightAware
11:17PM 21.6920 -87.5100 137° Southeast 556 640 35,000  Level FlightAware
11:18PM 21.6050 -87.4240 137° Southeast 557 641 35,000  Level FlightAware
11:18PM 21.5300 -87.3500 137° Southeast 556 640 35,000  Level FlightAware
11:19PM 21.4540 -87.2760 138° Southeast 556 640 35,000  Level FlightAware
11:20PM 21.3660 -87.1900 138° Southeast 556 640 35,000  Level FlightAware
11:20PM 21.2930 -87.1200 138° Southeast 555 639 35,000  Level FlightAware
11:21PM 21.2050 -87.0340 138° Southeast 554 638 35,000  Level FlightAware
11:22PM 21.1290 -86.9590 137° Southeast 553 636 35,000  Level FlightAware
11:23PM 21.0440 -86.8770 138° Southeast 552 635 35,000  Level FlightAware
11:23PM 20.9680 -86.8040 138° Southeast 552 635 35,000  Level FlightAware
11:24PM 20.8930 -86.7310 138° Southeast 551 634 35,000  Level FlightAware
11:25PM 20.8280 -86.6670 137° Southeast 551 634 35,000  Level FlightAware
11:25PM 20.7360 -86.5780 138° Southeast 551 634 35,000  Level FlightAware
11:26PM 20.6620 -86.5070 138° Southeast 551 634 35,000  Level FlightAware
11:27PM 20.5740 -86.4220 138° Southeast 553 636 35,000  Level FlightAware
11:27PM 20.5150 -86.3630 137° Southeast 553 636 35,000  Level FlightAware
11:28PM 20.4160 -86.2680 138° Southeast 554 638 35,000  Level FlightAware
11:29PM 20.3520 -86.2050 137° Southeast 554 638 35,000  Level FlightAware
11:30PM 20.2890 -86.1410 136° Southeast 554 638 35,000  Level FlightAware
11:30PM 20.2250 -86.0780 137° Southeast 554 638 35,000  Level FlightAware
11:31PM 20.1610 -86.0150 137° Southeast 554 638 35,000  Level FlightAware
11:32PM 20.0810 -85.9350 137° Southeast 554 638 35,000  Level FlightAware
11:32PM 20.0180 -85.8720 137° Southeast 554 638 35,000  Level FlightAware
11:33PM 19.9540 -85.8090 137° Southeast 554 638 35,000  Level FlightAware
11:34PM 19.8900 -85.7460 137° Southeast 554 638 35,000  Level FlightAware
11:34PM 19.8260 -85.6830 137° Southeast 554 638 35,000  Level FlightAware
11:35PM 19.7470 -85.6040 137° Southeast 554 638 35,000  Level FlightAware
11:36PM 19.6830 -85.5400 137° Southeast 554 638 35,000  Level FlightAware
11:37PM 19.6190 -85.4770 137° Southeast 554 638 35,000  Level FlightAware
11:37PM 19.5560 -85.4140 137° Southeast 554 638 35,000 23 Level FlightAware
11:40PM 19.3288 -85.1879 137° Southeast  Level Estimated
11:41PM 19.2300 -85.0897 137° Southeast  Level Estimated
11:42PM 19.1311 -84.9917 137° Southeast  Level Estimated
11:43PM 19.0321 -84.8938 137° Southeast  Level Estimated
11:44PM 18.9331 -84.7960 137° Southeast  Level Estimated
11:45PM 18.8340 -84.6984 137° Southeast  Level Estimated
11:46PM 18.7349 -84.6008 137° Southeast  Level Estimated
11:47PM 18.6357 -84.5034 137° Southeast  Level Estimated
11:48PM 18.5365 -84.4061 137° Southeast  Level Estimated
11:49PM 18.4372 -84.3089 137° Southeast  Level Estimated
11:50PM 18.3379 -84.2118 137° Southeast  Level Estimated
11:51PM 18.2385 -84.1148 137° Southeast  Level Estimated
11:52PM 18.1391 -84.0179 137° Southeast  Level Estimated
11:53PM 18.0396 -83.9212 137° Southeast  Level Estimated
11:54PM 17.9401 -83.8245 137° Southeast  Level Estimated
11:55PM 17.8406 -83.7280 137° Southeast  Level Estimated
11:56PM 17.7410 -83.6316 137° Southeast  Level Estimated
11:57PM 17.6413 -83.5352 137° Southeast  Level Estimated
11:58PM 17.5416 -83.4390 137° Southeast  Level Estimated
11:59PM 17.4419 -83.3429 137° Southeast  Level Estimated
12:00AM 17.3421 -83.2469 137° Southeast  Level Estimated
12:01AM 17.2422 -83.1510 137° Southeast  Level Estimated
12:02AM 17.1424 -83.0552 137° Southeast  Level Estimated
12:03AM 17.0424 -82.9595 138° Southeast  Level Estimated
12:04AM 16.9425 -82.8639 138° Southeast  Level Estimated
12:05AM 16.8424 -82.7684 138° Southeast  Level Estimated
12:06AM 16.7424 -82.6730 138° Southeast  Level Estimated
12:07AM 16.6423 -82.5777 138° Southeast  Level Estimated
12:08AM 16.5421 -82.4825 138° Southeast  Level Estimated
12:09AM 16.4419 -82.3874 138° Southeast  Level Estimated
12:10AM 16.3417 -82.2924 138° Southeast  Level Estimated
12:11AM 16.2414 -82.1975 138° Southeast  Level Estimated
12:12AM 16.1411 -82.1027 138° Southeast  Level Estimated
12:13AM 16.0407 -82.0080 138° Southeast  Level Estimated
12:14AM 15.9403 -81.9134 138° Southeast  Level Estimated
12:15AM 15.8399 -81.8189 138° Southeast  Level Estimated
12:16AM 15.7394 -81.7245 138° Southeast  Level Estimated
12:17AM 15.6389 -81.6301 138° Southeast  Level Estimated
12:18AM 15.5383 -81.5359 138° Southeast  Level Estimated
12:19AM 15.4377 -81.4418 138° Southeast  Level Estimated
12:20AM 15.3370 -81.3477 138° Southeast  Level Estimated
12:21AM 15.2363 -81.2538 138° Southeast  Level Estimated
12:22AM 15.1356 -81.1599 138° Southeast  Level Estimated
12:23AM 15.0349 -81.0661 138° Southeast  Level Estimated
12:24AM 14.9340 -80.9724 138° Southeast  Level Estimated
12:25AM 14.8332 -80.8788 138° Southeast  Level Estimated
12:26AM 14.7323 -80.7853 138° Southeast  Level Estimated
12:27AM 14.6314 -80.6919 138° Southeast  Level Estimated
12:28AM 14.5305 -80.5985 138° Southeast  Level Estimated
12:29AM 14.4295 -80.5052 138° Southeast  Level Estimated
12:30AM 14.3284 -80.4121 138° Southeast  Level Estimated
12:31AM 14.2274 -80.3190 138° Southeast  Level Estimated
12:32AM 14.1263 -80.2260 138° Southeast  Level Estimated
12:33AM 14.0252 -80.1330 138° Southeast  Level Estimated
12:34AM 13.9240 -80.0402 138° Southeast  Level Estimated
12:35AM 13.8228 -79.9474 138° Southeast  Level Estimated
12:36AM 13.7215 -79.8548 138° Southeast  Level Estimated
12:37AM 13.6203 -79.7622 138° Southeast  Level Estimated
12:38AM 13.5190 -79.6696 138° Southeast  Level Estimated
12:39AM 13.4176 -79.5772 138° Southeast  Level Estimated
12:40AM 13.3162 -79.4848 138° Southeast  Level Estimated
12:41AM 13.2148 -79.3925 138° Southeast  Level Estimated
12:42AM 13.1134 -79.3003 138° Southeast  Level Estimated
12:43AM 13.0119 -79.2082 138° Southeast  Level Estimated
12:44AM 12.9104 -79.1161 139° Southeast  Level Estimated
12:45AM 12.8089 -79.0241 139° Southeast  Level Estimated
12:46AM 12.7073 -78.9322 139° Southeast  Level Estimated
12:47AM 12.6057 -78.8404 139° Southeast  Level Estimated
12:48AM 12.5041 -78.7486 139° Southeast  Level Estimated
12:49AM 12.4024 -78.6569 139° Southeast  Level Estimated
12:50AM 12.3007 -78.5653 139° Southeast  Level Estimated
12:51AM 12.1989 -78.4737 139° Southeast  Level Estimated
12:52AM 12.0972 -78.3823 139° Southeast  Level Estimated
12:53AM 11.9954 -78.2908 139° Southeast  Level Estimated
12:54AM 11.8936 -78.1995 139° Southeast  Level Estimated
12:55AM 11.7917 -78.1082 139° Southeast  Level Estimated
12:56AM 11.6898 -78.0170 139° Southeast  Level Estimated
12:57AM 11.5879 -77.9259 139° Southeast  Level Estimated
12:58AM 11.4860 -77.8348 139° Southeast  Level Estimated
12:59AM 11.3841 -77.7438 139° Southeast  Level Estimated
01:00AM 11.2821 -77.6529 139° Southeast  Level Estimated
01:01AM 11.1800 -77.5620 139° Southeast  Level Estimated
01:02AM 11.0780 -77.4712 139° Southeast  Level Estimated
01:03AM 10.9759 -77.3804 139° Southeast  Level Estimated
01:03AM 10.9570 -76.0240 139° Southeast 484 557 37,000  Level FlightAware
01:03AM 10.8840 -75.9870 154° Southeast 484 557 37,000  Level FlightAware
01:04AM 10.8738 -77.2897 139° Southeast  Level Estimated
01:04AM 10.8160 -75.9520 153° Southeast 484 557 37,000  Level FlightAware
01:05AM 10.7230 -75.9080 155° Southeast 472 543 37,000  Level FlightAware
01:06AM 10.6420 -75.8660 153° Southeast 472 543 37,000  Level FlightAware
01:06AM 10.5660 -75.8290 154° Southeast 469 540 37,000  Level FlightAware
01:07AM 10.4600 -75.7750 153° Southeast 467 537 37,000  Level FlightAware
01:08AM 10.3970 -75.7400 151° Southeast 467 537 37,000  Level FlightAware
01:08AM 10.2920 -75.6890 154° Southeast 469 540 37,000  Level FlightAware
01:09AM 10.2290 -75.6540 151° Southeast 469 540 37,000  Level FlightAware
01:10AM 10.1640 -75.6190 152° Southeast 469 540 37,000  Level FlightAware
01:11AM 10.0820 -75.5750 152° Southeast 469 540 37,000  Level FlightAware
01:11AM 10.0170 -75.5400 152° Southeast 469 540 37,000  Level FlightAware
01:12AM 9.9520 -75.5050 152° Southeast 469 540 37,000  Level FlightAware
01:13AM 9.8870 -75.4700 152° Southeast 469 540 37,000  Level FlightAware
01:13AM 9.8220 -75.4350 152° Southeast 469 540 37,000  Level FlightAware
01:14AM 9.7400 -75.3910 152° Southeast 469 540 37,000  Level FlightAware
01:15AM 9.6750 -75.3550 151° Southeast 469 540 37,000  Level FlightAware
01:15AM 9.6100 -75.3200 152° Southeast 469 540 37,000  Level FlightAware
01:16AM 9.5450 -75.2850 152° Southeast 469 540 37,000  Level FlightAware
01:17AM 9.4800 -75.2500 152° Southeast 469 540 37,000  Level FlightAware
01:17AM 9.4150 -75.2150 152° Southeast 469 540 37,000  Level FlightAware
01:18AM 9.3330 -75.1710 152° Southeast 469 540 37,000 Level FlightAware
01:21AM 9.0947 -74.9677 140° Southeast  Level Estimated
01:22AM 8.9910 -74.8793 140° Southeast  Level Estimated
01:23AM 8.8873 -74.7911 140° Southeast  Level Estimated
01:24AM 8.7836 -74.7029 140° Southeast  Level Estimated
01:25AM 8.6799 -74.6147 140° Southeast  Level Estimated
01:26AM 8.5762 -74.5266 140° Southeast  Level Estimated
01:27AM 8.4724 -74.4385 140° Southeast  Level Estimated
01:28AM 8.3686 -74.3504 140° Southeast  Level Estimated
01:29AM 8.2648 -74.2625 140° Southeast  Level Estimated
01:30AM 8.1610 -74.1745 140° Southeast  Level Estimated
01:31AM 8.0572 -74.0866 140° Southeast  Level Estimated
01:32AM 7.9533 -73.9988 140° Southeast  Level Estimated
01:33AM 7.8495 -73.9110 140° Southeast  Level Estimated
01:34AM 7.7456 -73.8232 140° Southeast  Level Estimated
01:35AM 7.6417 -73.7355 140° Southeast  Level Estimated
01:36AM 7.5377 -73.6479 140° Southeast  Level Estimated
01:37AM 7.4338 -73.5602 140° Southeast  Level Estimated
01:38AM 7.3298 -73.4726 140° Southeast  Level Estimated
01:39AM 7.2258 -73.3851 140° Southeast  Level Estimated
01:40AM 7.1218 -73.2976 140° Southeast  Level Estimated
01:41AM 7.0178 -73.2101 140° Southeast  Level Estimated
01:42AM 6.9138 -73.1227 140° Southeast  Level Estimated
01:43AM 6.8098 -73.0353 140° Southeast  Level Estimated
01:44AM 6.7057 -72.9479 140° Southeast  Level Estimated
01:45AM 6.6016 -72.8606 140° Southeast  Level Estimated
01:46AM 6.4975 -72.7733 140° Southeast  Level Estimated
01:47AM 6.3934 -72.6861 140° Southeast  Level Estimated
01:48AM 6.2893 -72.5989 140° Southeast  Level Estimated
01:49AM 6.1852 -72.5117 140° Southeast  Level Estimated
01:50AM 6.0810 -72.4246 140° Southeast  Level Estimated
01:51AM 5.9769 -72.3375 140° Southeast  Level Estimated
01:52AM 5.8727 -72.2504 140° Southeast  Level Estimated
01:53AM 5.7685 -72.1634 140° Southeast  Level Estimated
01:54AM 5.6643 -72.0764 140° Southeast  Level Estimated
01:55AM 5.5601 -71.9894 140° Southeast  Level Estimated
01:56AM 5.4558 -71.9025 140° Southeast  Level Estimated
01:57AM 5.3516 -71.8156 140° Southeast  Level Estimated
01:58AM 5.2474 -71.7287 140° Southeast  Level Estimated
01:59AM 5.1431 -71.6418 140° Southeast  Level Estimated
02:00AM 5.0388 -71.5550 140° Southeast  Level Estimated
02:01AM 4.9345 -71.4682 140° Southeast  Level Estimated
02:02AM 4.8302 -71.3814 140° Southeast  Level Estimated
02:03AM 4.7259 -71.2947 140° Southeast  Level Estimated
02:04AM 4.6216 -71.2080 140° Southeast  Level Estimated
02:05AM 4.5173 -71.1213 140° Southeast  Level Estimated
02:06AM 4.4129 -71.0346 140° Southeast  Level Estimated
02:07AM 4.3092 -70.9485 140° Southeast  Level Estimated
02:08AM 4.2055 -70.8624 140° Southeast  Level Estimated
02:09AM 4.1018 -70.7764 140° Southeast  Level Estimated
02:10AM 3.9981 -70.6904 140° Southeast  Level Estimated
02:11AM 3.8944 -70.6044 140° Southeast  Level Estimated
02:12AM 3.7906 -70.5184 140° Southeast  Level Estimated
02:13AM 3.6869 -70.4324 140° Southeast  Level Estimated
02:14AM 3.5831 -70.3465 140° Southeast  Level Estimated
02:15AM 3.4794 -70.2606 140° Southeast  Level Estimated
02:16AM 3.3756 -70.1747 140° Southeast  Level Estimated
02:17AM 3.2719 -70.0888 140° Southeast  Level Estimated
02:18AM 3.1681 -70.0029 140° Southeast  Level Estimated
02:19AM 3.0643 -69.9171 140° Southeast  Level Estimated
02:20AM 2.9605 -69.8313 140° Southeast  Level Estimated
02:21AM 2.8567 -69.7455 140° Southeast  Level Estimated
02:22AM 2.7529 -69.6597 140° Southeast  Level Estimated
02:23AM 2.6491 -69.5739 140° Southeast  Level Estimated
02:24AM 2.5452 -69.4881 140° Southeast  Level Estimated
02:25AM 2.4414 -69.4024 140° Southeast  Level Estimated
02:26AM 2.3376 -69.3166 140° Southeast  Level Estimated
02:27AM 2.2338 -69.2309 140° Southeast  Level Estimated
02:28AM 2.1299 -69.1452 140° Southeast  Level Estimated
02:29AM 2.0261 -69.0594 140° Southeast  Level Estimated
02:30AM 1.9222 -68.9738 140° Southeast  Level Estimated
02:31AM 1.8183 -68.8881 140° Southeast  Level Estimated
02:32AM 1.7145 -68.8024 140° Southeast  Level Estimated
02:33AM 1.6106 -68.7168 140° Southeast  Level Estimated
02:34AM 1.5068 -68.6311 140° Southeast  Level Estimated
02:35AM 1.4029 -68.5454 141° Southeast  Level Estimated
02:36AM 1.2990 -68.4598 141° Southeast  Level Estimated
02:37AM 1.1951 -68.3742 141° Southeast  Level Estimated
02:38AM 1.0913 -68.2885 141° Southeast  Level Estimated
02:39AM 0.9874 -68.2029 141° Southeast  Level Estimated
02:40AM 0.8835 -68.1173 141° Southeast  Level Estimated
02:41AM 0.7796 -68.0317 141° Southeast  Level Estimated
02:42AM 0.6757 -67.9461 141° Southeast  Level Estimated
02:43AM 0.5718 -67.8605 141° Southeast  Level Estimated
02:44AM 0.4679 -67.7749 141° Southeast  Level Estimated
02:45AM 0.3641 -67.6893 141° Southeast  Level Estimated
02:46AM 0.2602 -67.6037 141° Southeast  Level Estimated
02:47AM 0.1563 -67.5181 141° Southeast  Level Estimated
02:48AM 0.0524 -67.4325 141° Southeast  Level Estimated
02:49AM -0.0515 -67.3469 141° Southeast  Level Estimated
02:50AM -0.1554 -67.2613 141° Southeast  Level Estimated
02:51AM -0.2593 -67.1757 141° Southeast  Level Estimated
02:52AM -0.3632 -67.0901 141° Southeast  Level Estimated
02:53AM -0.4671 -67.0045 141° Southeast  Level Estimated
02:54AM -0.5710 -66.9190 141° Southeast  Level Estimated
02:55AM -0.6748 -66.8334 141° Southeast  Level Estimated
02:56AM -0.7787 -66.7477 141° Southeast  Level Estimated
02:57AM -0.8826 -66.6621 141° Southeast  Level Estimated
02:58AM -0.9865 -66.5765 141° Southeast  Level Estimated
02:59AM -1.0904 -66.4909 141° Southeast  Level Estimated
03:00AM -1.1943 -66.4053 141° Southeast  Level Estimated
03:01AM -1.2981 -66.3196 141° Southeast  Level Estimated
03:02AM -1.4020 -66.2340 141° Southeast  Level Estimated
03:03AM -1.5059 -66.1483 141° Southeast  Level Estimated
03:04AM -1.6098 -66.0627 141° Southeast  Level Estimated
03:05AM -1.7136 -65.9770 140° Southeast  Level Estimated
03:06AM -1.8175 -65.8913 140° Southeast  Level Estimated
03:07AM -1.9213 -65.8057 140° Southeast  Level Estimated
03:08AM -2.0252 -65.7200 140° Southeast  Level Estimated
03:09AM -2.1290 -65.6343 140° Southeast  Level Estimated
03:10AM -2.2329 -65.5486 140° Southeast  Level Estimated
03:11AM -2.3367 -65.4628 140° Southeast  Level Estimated
03:12AM -2.4405 -65.3771 140° Southeast  Level Estimated
03:13AM -2.5444 -65.2913 140° Southeast  Level Estimated
03:14AM -2.6482 -65.2056 140° Southeast  Level Estimated
03:15AM -2.7520 -65.1198 140° Southeast  Level Estimated
03:16AM -2.8558 -65.0340 140° Southeast  Level Estimated
03:17AM -2.9596 -64.9482 140° Southeast  Level Estimated
03:18AM -3.0634 -64.8623 140° Southeast  Level Estimated
03:19AM -3.1672 -64.7765 140° Southeast  Level Estimated
03:20AM -3.2710 -64.6906 140° Southeast  Level Estimated
03:21AM -3.3747 -64.6048 140° Southeast  Level Estimated
03:22AM -3.4785 -64.5189 140° Southeast  Level Estimated
03:23AM -3.5823 -64.4329 140° Southeast  Level Estimated
03:24AM -3.6860 -64.3470 140° Southeast  Level Estimated
03:25AM -3.7898 -64.2610 140° Southeast  Level Estimated
03:26AM -3.8935 -64.1750 140° Southeast  Level Estimated
03:27AM -3.9972 -64.0891 140° Southeast  Level Estimated
03:28AM -4.1009 -64.0030 140° Southeast  Level Estimated
03:29AM -4.2046 -63.9170 140° Southeast  Level Estimated
03:30AM -4.3083 -63.8309 140° Southeast  Level Estimated
03:31AM -4.4120 -63.7448 140° Southeast  Level Estimated
03:32AM -4.5157 -63.6587 140° Southeast  Level Estimated
03:33AM -4.6194 -63.5726 140° Southeast  Level Estimated
03:34AM -4.7230 -63.4864 140° Southeast  Level Estimated
03:35AM -4.8267 -63.4002 140° Southeast  Level Estimated
03:36AM -4.9303 -63.3140 140° Southeast  Level Estimated
03:37AM -5.0339 -63.2278 140° Southeast  Level Estimated
03:38AM -5.1376 -63.1415 140° Southeast  Level Estimated
03:39AM -5.2412 -63.0552 140° Southeast  Level Estimated
03:40AM -5.3447 -62.9689 140° Southeast  Level Estimated
03:41AM -5.4483 -62.8825 140° Southeast  Level Estimated
03:42AM -5.5519 -62.7961 140° Southeast  Level Estimated
03:43AM -5.6554 -62.7097 140° Southeast  Level Estimated
03:44AM -5.7590 -62.6232 140° Southeast  Level Estimated
03:45AM -5.8625 -62.5368 140° Southeast  Level Estimated
03:46AM -5.9660 -62.4503 140° Southeast  Level Estimated
03:47AM -6.0695 -62.3637 140° Southeast  Level Estimated
03:48AM -6.1730 -62.2771 140° Southeast  Level Estimated
03:49AM -6.2765 -62.1905 140° Southeast  Level Estimated
03:50AM -6.3800 -62.1039 140° Southeast  Level Estimated
03:51AM -6.4834 -62.0172 140° Southeast  Level Estimated
03:52AM -6.5868 -61.9305 140° Southeast  Level Estimated
03:53AM -6.6902 -61.8437 140° Southeast  Level Estimated
03:54AM -6.7936 -61.7569 140° Southeast  Level Estimated
03:55AM -6.8970 -61.6701 140° Southeast  Level Estimated
03:56AM -7.0004 -61.5832 140° Southeast  Level Estimated
03:57AM -7.1037 -61.4963 140° Southeast  Level Estimated
03:58AM -7.2071 -61.4094 140° Southeast  Level Estimated
03:59AM -7.3104 -61.3224 140° Southeast  Level Estimated
04:00AM -7.4137 -61.2354 140° Southeast  Level Estimated
04:01AM -7.5170 -61.1483 140° Southeast  Level Estimated
04:02AM -7.6203 -61.0612 140° Southeast  Level Estimated
04:03AM -7.7235 -60.9741 140° Southeast  Level Estimated
04:04AM -7.8267 -60.8869 140° Southeast  Level Estimated
04:05AM -7.9300 -60.7997 140° Southeast  Level Estimated
04:06AM -8.0330 -60.7126 140° Southeast  Level Estimated
04:07AM -8.1360 -60.6254 140° Southeast  Level Estimated
04:08AM -8.2389 -60.5382 140° Southeast  Level Estimated
04:09AM -8.3419 -60.4509 140° Southeast  Level Estimated
04:10AM -8.4448 -60.3636 140° Southeast  Level Estimated
04:11AM -8.5478 -60.2763 140° Southeast  Level Estimated
04:12AM -8.6507 -60.1889 140° Southeast  Level Estimated
04:13AM -8.7535 -60.1015 140° Southeast  Level Estimated
04:14AM -8.8564 -60.0140 140° Southeast  Level Estimated
04:15AM -8.9592 -59.9264 140° Southeast  Level Estimated
04:16AM -9.0620 -59.8388 140° Southeast  Level Estimated
04:17AM -9.1649 -59.7512 140° Southeast  Level Estimated
04:18AM -9.2676 -59.6635 140° Southeast  Level Estimated
04:19AM -9.3704 -59.5758 140° Southeast  Level Estimated
04:20AM -9.4731 -59.4880 140° Southeast  Level Estimated
04:21AM -9.5758 -59.4001 140° Southeast  Level Estimated
04:22AM -9.6785 -59.3122 140° Southeast  Level Estimated
04:23AM -9.7812 -59.2243 140° Southeast  Level Estimated
04:24AM -9.8838 -59.1363 140° Southeast  Level Estimated
04:25AM -9.9864 -59.0482 140° Southeast  Level Estimated
04:26AM -10.0890 -58.9601 140° Southeast  Level Estimated
04:27AM -10.1920 -58.8716 140° Southeast  Level Estimated
04:28AM -10.2949 -58.7831 140° Southeast  Level Estimated
04:29AM -10.3978 -58.6945 140° Southeast  Level Estimated
04:30AM -10.5007 -58.6058 140° Southeast  Level Estimated
04:31AM -10.6035 -58.5171 140° Southeast  Level Estimated
04:32AM -10.7063 -58.4283 140° Southeast  Level Estimated
04:33AM -10.8091 -58.3395 140° Southeast  Level Estimated
04:34AM -10.9119 -58.2506 140° Southeast  Level Estimated
04:35AM -11.0147 -58.1616 140° Southeast  Level Estimated
04:36AM -11.1174 -58.0726 140° Southeast  Level Estimated
04:37AM -11.2201 -57.9835 140° Southeast  Level Estimated
04:38AM -11.3227 -57.8943 140° Southeast  Level Estimated
04:39AM -11.4254 -57.8051 140° Southeast  Level Estimated
04:40AM -11.5280 -57.7158 140° Southeast  Level Estimated
04:41AM -11.6306 -57.6265 140° Southeast  Level Estimated
04:42AM -11.7331 -57.5371 140° Southeast  Level Estimated
04:43AM -11.8357 -57.4476 140° Southeast  Level Estimated
04:44AM -11.9382 -57.3580 139° Southeast  Level Estimated
04:45AM -12.0406 -57.2684 139° Southeast  Level Estimated
04:46AM -12.1431 -57.1787 139° Southeast  Level Estimated
04:47AM -12.2455 -57.0890 139° Southeast  Level Estimated
04:48AM -12.3479 -56.9992 139° Southeast  Level Estimated
04:49AM -12.4503 -56.9093 139° Southeast  Level Estimated
04:50AM -12.5526 -56.8193 139° Southeast  Level Estimated
04:51AM -12.6549 -56.7293 139° Southeast  Level Estimated
04:52AM -12.7572 -56.6392 139° Southeast  Level Estimated
04:53AM -12.8594 -56.5490 139° Southeast  Level Estimated
04:54AM -12.9616 -56.4588 139° Southeast  Level Estimated
04:55AM -13.0638 -56.3684 139° Southeast  Level Estimated
04:56AM -13.1659 -56.2780 139° Southeast  Level Estimated
04:57AM -13.2680 -56.1875 139° Southeast  Level Estimated
04:58AM -13.3701 -56.0970 139° Southeast  Level Estimated
04:59AM -13.4722 -56.0064 139° Southeast  Level Estimated
05:00AM -13.5742 -55.9157 139° Southeast  Level Estimated
05:01AM -13.6762 -55.8249 139° Southeast  Level Estimated
05:02AM -13.7781 -55.7340 139° Southeast  Level Estimated
05:03AM -13.8800 -55.6431 139° Southeast  Level Estimated
05:04AM -13.9819 -55.5521 139° Southeast  Level Estimated
05:05AM -14.0838 -55.4610 139° Southeast  Level Estimated
05:06AM -14.1856 -55.3698 139° Southeast  Level Estimated
05:07AM -14.2874 -55.2785 139° Southeast  Level Estimated
05:08AM -14.3891 -55.1872 139° Southeast  Level Estimated
05:09AM -14.4908 -55.0957 139° Southeast  Level Estimated
05:10AM -14.5925 -55.0042 139° Southeast  Level Estimated
05:11AM -14.6941 -54.9126 139° Southeast  Level Estimated
05:12AM -14.7957 -54.8209 139° Southeast  Level Estimated
05:13AM -14.8973 -54.7291 139° Southeast  Level Estimated
05:14AM -14.9988 -54.6373 139° Southeast  Level Estimated
05:15AM -15.1003 -54.5453 139° Southeast  Level Estimated
05:16AM -15.2018 -54.4533 139° Southeast  Level Estimated
05:17AM -15.3032 -54.3612 139° Southeast  Level Estimated
05:18AM -15.4046 -54.2690 139° Southeast  Level Estimated
05:19AM -15.5059 -54.1767 139° Southeast  Level Estimated
05:20AM -15.6072 -54.0843 139° Southeast  Level Estimated
05:21AM -15.7085 -53.9918 139° Southeast  Level Estimated
05:22AM -15.8097 -53.8992 139° Southeast  Level Estimated
05:23AM -15.9109 -53.8066 139° Southeast  Level Estimated
05:24AM -16.0121 -53.7138 139° Southeast  Level Estimated
05:25AM -16.1132 -53.6209 139° Southeast  Level Estimated
05:26AM -16.2142 -53.5280 139° Southeast  Level Estimated
05:27AM -16.3153 -53.4349 139° Southeast  Level Estimated
05:28AM -16.4163 -53.3418 139° Southeast  Level Estimated
05:29AM -16.5172 -53.2486 138° Southeast  Level Estimated
05:30AM -16.6181 -53.1552 138° Southeast  Level Estimated
05:31AM -16.7190 -53.0618 138° Southeast  Level Estimated
05:32AM -16.8198 -52.9683 138° Southeast  Level Estimated
05:33AM -16.9206 -52.8746 138° Southeast  Level Estimated
05:34AM -17.0213 -52.7809 138° Southeast  Level Estimated
05:35AM -17.1220 -52.6871 138° Southeast  Level Estimated
05:36AM -17.2227 -52.5931 138° Southeast  Level Estimated
05:37AM -17.3233 -52.4991 138° Southeast  Level Estimated
05:38AM -17.4238 -52.4049 138° Southeast  Level Estimated
05:39AM -17.5243 -52.3107 138° Southeast  Level Estimated
05:40AM -17.6248 -52.2164 138° Southeast  Level Estimated
05:41AM -17.7252 -52.1219 138° Southeast  Level Estimated
05:42AM -17.8256 -52.0274 138° Southeast  Level Estimated
05:43AM -17.9260 -51.9327 138° Southeast  Level Estimated
05:44AM -18.0263 -51.8379 138° Southeast  Level Estimated
05:45AM -18.1265 -51.7430 138° Southeast  Level Estimated
05:46AM -18.2267 -51.6480 138° Southeast  Level Estimated
05:47AM -18.3269 -51.5529 138° Southeast  Level Estimated
05:48AM -18.4270 -51.4577 138° Southeast  Level Estimated
05:49AM -18.5270 -51.3624 138° Southeast  Level Estimated
05:50AM -18.6270 -51.2670 138° Southeast  Level Estimated
05:51AM -18.7270 -51.1714 138° Southeast  Level Estimated
05:52AM -18.8269 -51.0758 138° Southeast  Level Estimated
05:53AM -18.9268 -50.9800 138° Southeast  Level Estimated
05:54AM -19.0266 -50.8841 138° Southeast  Level Estimated
05:54AM -19.2680 -50.3770 138° Southeast 515 593 39,000  Level FlightAware
05:55AM -19.1264 -50.7881 138° Southeast  Level Estimated
05:55AM -19.3320 -50.3050 133° Southeast 515 593 39,000  Level FlightAware
05:56AM -19.4230 -50.2210 139° Southeast 508 585 39,000  Level FlightAware
05:57AM -19.5000 -50.1480 138° Southeast 508 585 39,000  Level FlightAware
05:57AM -19.5720 -50.0780 138° Southeast 508 585 39,000  Level FlightAware
05:58AM -19.6500 -50.0020 137° Southeast 508 585 39,000  Level FlightAware
05:59AM -19.7430 -49.9120 138° Southeast 507 583 39,000  Level FlightAware
06:00AM -19.8100 -49.8470 138° Southeast 507 583 39,000  Level FlightAware
06:00AM -19.8910 -49.7680 137° Southeast 508 585 39,000  Level FlightAware
06:01AM -19.9630 -49.6980 138° Southeast 509 586 39,000  Level FlightAware
06:02AM -20.0220 -49.6410 138° Southeast 510 587 39,000  Level FlightAware
06:02AM -20.1110 -49.5550 138° Southeast 512 589 39,000  Level FlightAware
06:03AM -20.1790 -49.4890 138° Southeast 513 590 39,000  Level FlightAware
06:04AM -20.2610 -49.4090 138° Southeast 514 592 39,000  Level FlightAware
06:05AM -20.3310 -49.3400 137° Southeast 515 593 39,000  Level FlightAware
06:05AM -20.4010 -49.2720 138° Southeast 515 593 39,000  Level FlightAware
06:06AM -20.4770 -49.1970 137° Southeast 516 594 39,000  Level FlightAware
06:07AM -20.5490 -49.1270 138° Southeast 516 594 39,000  Level FlightAware
06:07AM -20.6190 -49.0580 137° Southeast 517 595 39,000  Level FlightAware
06:08AM -20.7010 -48.9780 138° Southeast 517 595 39,000  Level FlightAware
06:09AM -20.7710 -48.9080 137° Southeast 517 595 39,000  Level FlightAware
06:09AM -20.8490 -48.8320 138° Southeast 517 595 39,000  Level FlightAware
06:10AM -20.9180 -48.7640 137° Southeast 515 593 39,000  Level FlightAware
06:11AM -20.9980 -48.6840 137° Southeast 513 590 39,000  Level FlightAware
06:12AM -21.0670 -48.6170 138° Southeast 510 587 39,000  Level FlightAware
06:12AM -21.1380 -48.5460 137° Southeast 509 586 39,000  Level FlightAware
06:13AM -21.2140 -48.4700 137° Southeast 507 583 39,000  Level FlightAware
06:14AM -21.2830 -48.4020 137° Southeast 506 582 39,000  Level FlightAware
06:14AM -21.3500 -48.3350 137° Southeast 506 582 39,000  Level FlightAware
06:15AM -21.4290 -48.2560 137° Southeast 507 583 39,000  Level FlightAware
06:16AM -21.4980 -48.1870 137° Southeast 507 583 39,000  Level FlightAware
06:16AM -21.5750 -48.1110 137° Southeast 507 583 39,000 -600 Level FlightAware
06:17AM -21.6520 -48.0330 137° Southeast 489 563 38,100 -1,553 Descending FlightAware
06:18AM -21.7160 -47.9700 138° Southeast 469 540 36,800 -1,800 Descending FlightAware
06:19AM -21.7790 -47.9060 137° Southeast 457 526 35,700 -1,694 Descending FlightAware
06:19AM -21.8480 -47.8360 137° Southeast 443 510 34,400 -1,694 Descending FlightAware
06:20AM -21.9070 -47.7770 137° Southeast 432 497 33,300 -2,047 Descending FlightAware
06:21AM -21.9710 -47.7120 137° Southeast 435 501 31,500 -2,625 Descending FlightAware
06:21AM -22.0250 -47.6590 138° Southeast 445 512 29,800 -2,325 Descending FlightAware
06:22AM -22.0910 -47.5910 136° Southeast 434 499 28,400 -1,867 Descending FlightAware
06:23AM -22.1570 -47.5250 137° Southeast 424 488 27,000 -1,835 Descending FlightAware
06:23AM -22.2130 -47.4680 137° Southeast 417 480 25,800 -1,765 Descending FlightAware
06:24AM -22.2750 -47.4050 137° Southeast 410 472 24,500 -1,694 Descending FlightAware
06:25AM -22.3260 -47.3540 137° Southeast 403 464 23,400 -1,725 Descending FlightAware
06:26AM -22.3800 -47.2980 136° Southeast 396 456 22,200 -1,624 Descending FlightAware
06:26AM -22.4390 -47.2390 137° Southeast 382 440 21,100 -1,341 Descending FlightAware
06:27AM -22.4890 -47.1880 137° Southeast 366 421 20,300 -750 Descending FlightAware
06:28AM -22.5390 -47.1360 136° Southeast 362 417 20,100 -565 Descending FlightAware
06:28AM -22.6000 -47.0880 144° Southeast 355 409 19,500 -1,271 Descending FlightAware
06:29AM -22.6620 -47.0620 159° South 361 415 18,300 -1,725 Descending FlightAware
06:30AM -22.7240 -47.0360 159° South 345 397 17,200 -1,553 Descending FlightAware
06:30AM -22.7940 -47.0070 159° South 331 381 16,100 -1,482 Descending FlightAware
06:31AM -22.8510 -46.9830 159° South 331 381 15,100 -1,129 Descending FlightAware
06:32AM -22.9170 -46.9550 159° South 330 380 14,500 -1,341 Descending FlightAware
06:33AM -22.9750 -46.9300 158° South 333 383 13,200 -1,950 Descending FlightAware
06:33AM -23.0350 -46.9050 159° South 333 383 11,900 -1,624 Descending FlightAware
06:34AM -23.0960 -46.8800 159° South 279 321 10,900 -1,129 Descending FlightAware
06:35AM -23.1430 -46.8600 159° South 257 296 10,300 -982 Descending FlightAware
06:35AM -23.1610 -46.8520 158° South 264 304 10,000 -1,200 Descending FlightAware
06:35AM -23.1950 -46.8380 159° South 262 302 9,400 -1,418 Descending FlightAware
06:36AM -23.2230 -46.8260 159° South 259 298 8,700 -1,418 Descending FlightAware
06:36AM -23.2580 -46.8110 159° South 264 304 8,100 -1,091 Descending FlightAware
06:37AM -23.2850 -46.8000 159° South 240 276 7,700 -900 Descending FlightAware
06:37AM -23.3010 -46.7930 158° South 229 264 7,500 -533 Descending FlightAware
06:37AM -23.3310 -46.7800 158° South 212 244 7,300 -436 Descending FlightAware
06:38AM -23.3540 -46.7710 160° South 210 242 7,100 -655 Descending FlightAware
06:38AM -23.3800 -46.7550 151° Southeast 209 241 6,700 -1,000 Descending FlightAware
06:39AM -23.4020 -46.7350 140° Southeast 200 230 6,100 -1,091 Descending FlightAware
06:39AM -23.4200 -46.7180 139° Southeast 197 227 5,700 -900 Descending FlightAware
06:40AM -23.4310 -46.7080 140° Southeast 197 227 5,500 -800 Descending FlightAware
06:40AM -23.4490 -46.6880 134° Southeast 185 213 5,100 -982 Descending FlightAware
06:40AM -23.4590 -46.6670 117° Southeast 186 214 4,600 -764 Descending FlightAware
06:41AM -23.4700 -46.6420 116° Southeast 178 205 4,400 -267 Descending FlightAware
06:41AM -23.4740 -46.6290 109° East 181 208 4,400  Level FlightAware
06:42AM -23.4710 -46.6070 82° East 185 213 4,400 -300 Level FlightAware
06:42AM -23.4670 -46.5930 73° East 182 209 4,200 -933 Descending FlightAware
06:42AM -23.4610 -46.5680 75° East 159 183 3,700 -873 Descending FlightAware
06:43AM -23.4560 -46.5510 72° East 131 151 3,400 -750 Descending FlightAware
06:43AM -23.4530 -46.5410 72° East 126 145 3,200 -667 Descending FlightAware
06:44AM -23.4480 -46.5230 73° East 126 145 2,900 -655 Descending FlightAware
06:44AM -23.4440 -46.5080 74° East 125 144 2,600 -655 Descending FlightAware
06:44AM -23.4400 -46.4900 76° East 132 152 2,300 -600 Descending FlightAware